Location: D?uga
(50.2667°N, 19.7833°E)
Time: 15:32:51
(UTC+00:00)

Cosmos 2219 Rocket - Pass Details

Date: 23 May 2024
Orbit: 827 x 846 km, 71.0° (Epoch: 12 June)

Event Time Altitude Azimuth Distance (km) Brightness Sun altitude
Rises 01:49:08 0° 329° (NNW) 3,400 5.5 -7.5°
Reaches altitude 10° 01:51:36 10° 326° (NNW) 2,464 4.8 -7.2°
Maximum altitude 01:57:11 65° 246° (WSW) 922 2.2 -6.6°
Drops below altitude 10° 02:02:47 10° 166° (SSE) 2,459 4.4 -5.9°
Sets 02:05:14 0° 163° (SSE) 3,392 5.1 -5.6°
